Wind_Speed
20 13 15 19 13 11 17 18 10 10 9 3 6 20 19 20 23 21 21 21 20 19 18 16 14 16 18 17 16 11 15 15 16 16 16 12 14 17 15 14 14 15 16 16
17 17 22 7 6 2 12 9 4 7 4 7 6 10 17 18 16 26 20 22 21 22 19 20 16 15 14 14 14 12 11 16 17 16 15 15 13 14 15 17 14 16 16 14
20 21 20 3 9 8 10 9 3 7 8 10 8 10 21 21 19 15 27 24 23 26 24 21 17 15 12 13 13 13 13 16 16 14 14 15 13 16 16 14 15 15 15 13
20 26 19 13 14 13 10 11 7 2 9 11 10 11 8 14 6 8 15 28 29 26 28 22 16 17 13 12 13 12 13 14 15 15 12 15 17 15 14 12 13 15 15 16
20 20 21 13 13 10 3 6 12 6 10 15 15 5 4 22 21 27 14 21 21 22 32 27 15 15 14 10 11 10 11 11 11 12 11 14 15 15 15 16 12 15 17 17
21 23 15 15 14 6 8 6 11 11 11 12 5 2 10 6 16 12 19 11 14 23 29 27 19 16 13 10 9 12 12 11 9 11 10 12 14 16 15 14 15 17 15 18
18 23 18 11 16 4 11 13 11 9 6 10 8 5 5 19 26 29 24 9 8 32 21 21 26 18 11 5 7 11 4 4 3 1 3 7 10 12 13 15 9 11 15 18
14 17 22 16 16 12 14 17 11 7 8 8 15 8 6 12 33 32 14 9 4 23 34 28 17 13 12 11 13 13 10 7 5 2 2 5 6 4 9 8 13 15 11 9
16 18 22 14 12 17 12 17 17 14 19 13 9 7 13 13 9 14 15 14 12 14 16 15 13 14 14 13 12 11 11 8 6 4 8 8 8 9 7 9 12 8 9 9
21 12 19 17 19 21 18 10 12 8 7 8 8 10 6 17 14 5 12 16 17 20 18 16 16 15 16 14 13 10 8 8 7 2 6 6 6 9 10 8 8 9 10 10
24 18 14 19 19 21 11 9 14 17 6 1 2 1 8 20 9 7 9 16 17 15 16 15 16 16 14 11 9 9 8 6 5 3 7 8 10 6 9 9 10 13 12 13
25 14 13 27 20 17 17 20 18 9 9 6 5 0 10 14 23 40 49 17 17 18 20 20 23 18 12 11 10 8 8 4 6 3 8 7 5 5 7 9 10 13 14 16
20 18 11 10 16 12 18 14 17 6 8 7 3 5 19 34 23 35 21 24 25 22 16 16 23 25 13 8 8 12 4 4 10 9 9 11 13 17 17 17 16 16 16 16
24 20 13 9 14 9 25 16 15 11 5 7 6 6 9 26 6 9 21 18 23 19 18 15 19 12 9 7 3 4 2 9 8 13 14 12 15 18 20 21 20 20 21 22
16 5 5 13 17 9 7 7 13 23 7 11 18 14 14 22 9 11 13 24 22 19 14 13 12 7 6 7 9 7 8 9 11 16 13 12 15 15 17 19 21 22 23 24
18 9 15 22 28 6 17 12 16 25 5 7 23 19 23 9 12 13 17 15 16 14 12 9 6 5 3 3 5 7 10 11 10 10 12 15 19 21 20 20 20 21 20 21
19 15 10 12 18 16 10 18 28 6 5 7 9 16 13 11 13 13 13 13 15 10 9 7 5 4 3 5 7 7 9 9 13 15 14 15 16 19 20 21 21 22 23 22
19 17 9 8 15 11 9 9 5 9 9 7 7 11 13 14 14 13 13 14 13 10 7 4 2 3 4 6 8 9 7 9 9 12 15 15 18 17 18 18 19 21 21 23
21 17 9 5 5 5 7 5 6 5 11 7 13 11 16 14 17 14 12 12 10 8 5 3 3 4 2 5 7 5 6 8 9 12 15 15 15 18 19 20 21 23 25 27
23 17 12 3 5 4 4 9 17 7 10 9 14 11 13 15 7 11 13 11 8 5 4 3 3 3 4 5 6 6 7 9 13 15 15 15 16 16 17 16 20 23 24 26
17 6 11 12 6 6 15 11 10 6 8 8 9 10 11 6 14 20 14 10 6 5 4 4 3 5 5 6 7 7 7 12 16 15 14 15 16 17 18 20 21 22 25 25
14 15 16 3 5 7 7 11 3 5 10 9 8 10 22 20 18 16 12 9 6 4 4 5 5 5 5 7 7 8 10 13 16 17 18 18 19 18 19 19 19 22 23 25
8 3 1 5 5 9 3 14 6 8 9 8 11 15 19 17 15 12 10 8 6 6 6 5 5 5 5 7 8 9 12 15 16 17 20 22 19 22 21 22 23 25 26 26
6 13 6 10 7 17 24 8 8 12 12 12 12 14 14 16 13 11 9 7 7 6 5 5 5 5 7 8 8 9 14 17 15 18 15 15 17 19 22 21 22 23 26 28
3 14 14 13 23 19 15 14 15 16 15 15 14 13 13 13 10 11 9 9 7 6 5 5 5 6 7 8 8 9 10 15 15 16 15 16 15 14 17 18 19 21 22 27
7 7 6 8 24 12 20 18 17 18 17 16 16 15 12 12 11 12 11 9 7 6 4 4 5 6 7 8 9 11 12 12 13 14 15 15 16 16 17 17 19 17 23 22
Wind_Direction
225 237 238 244 295 181 229 209 193 131 129 248 224 158 170 186 181 171 179 171 185 188 184 175 187 181 168 180 182 202 193 209 222 228 237 259 250 271 281 280 294 286 295 278
231 224 248 318 264 255 267 239 79 104 169 222 206 203 175 180 195 178 186 174 193 183 171 170 187 188 185 184 193 201 220 219 235 233 233 256 274 274 283 287 280 282 286 282
226 225 240 203 238 249 237 263 246 162 188 256 238 226 163 176 177 200 182 187 190 184 172 173 185 186 192 196 191 206 223 230 247 245 228 242 251 256 257 270 271 273 280 282
221 245 231 205 255 210 243 325 295 231 218 215 236 282 163 142 179 204 208 195 196 181 166 163 175 187 191 192 194 207 222 229 239 248 236 251 255 249 270 271 274 276 275 273
228 232 249 203 216 260 66 249 271 230 278 277 200 243 140 78 50 296 230 217 227 168 167 156 161 180 186 177 173 185 206 214 213 251 257 245 267 265 277 273 272 271 269 274
243 231 237 215 239 206 271 243 240 247 249 260 319 254 114 138 161 278 282 217 244 198 142 137 163 165 180 182 167 184 207 225 216 218 253 273 265 267 267 263 259 277 288 281
237 248 220 236 226 190 245 246 234 224 307 266 230 241 140 162 156 203 243 216 231 117 136 182 185 178 177 174 148 157 184 157 164 284 277 281 288 284 278 280 303 296 299 295
213 227 223 188 225 212 217 234 250 276 229 321 287 62 199 201 198 191 169 164 146 143 145 185 176 182 143 133 135 144 140 123 92 91 291 274 280 278 300 309 272 285 273 314
209 228 223 189 216 246 248 261 267 269 237 230 179 114 143 338 157 148 149 135 130 99 114 130 145 139 125 124 125 118 125 124 99 31 11 11 347 338 304 276 285 301 275 282
252 210 231 186 200 224 236 274 278 277 271 283 76 95 115 39 323 327 149 137 131 117 109 108 110 115 126 118 111 108 108 105 59 73 340 347 326 314 331 338 339 340 333 326
246 254 184 228 206 222 212 244 255 270 278 8 52 215 163 184 191 341 235 128 118 126 122 127 117 110 113 117 115 106 93 70 52 22 349 307 326 304 306 306 300 308 316 313
234 249 228 203 204 212 239 220 234 245 250 68 14 126 245 210 164 177 248 135 148 147 145 153 129 116 96 82 68 66 63 56 359 338 314 309 287 284 294 316 302 297 291 286
229 243 225 210 199 198 225 231 247 288 51 31 54 1 337 327 161 185 114 100 101 95 99 76 95 102 103 108 116 98 82 37 347 325 311 294 291 276 273 275 273 278 278 278
234 261 175 189 230 303 211 226 319 183 95 301 74 172 142 273 51 100 112 115 102 101 84 75 89 96 113 114 119 152 223 310 306 316 312 323 299 294 298 299 295 282 275 278
235 197 73 11 307 72 64 66 334 316 84 195 125 113 242 246 153 127 123 117 103 103 98 91 93 95 88 34 25 2 358 347 330 322 336 316 297 294 291 289 292 292 287 283
224 188 146 186 240 141 123 128 264 274 14 34 131 158 197 197 126 133 120 131 113 108 107 109 108 105 82 2 1 347 3 350 326 313 301 296 295 298 301 302 302 298 294 292
220 226 214 186 186 168 203 182 207 131 69 57 70 115 126 110 109 112 117 125 113 121 119 112 90 57 15 1 356 355 352 322 312 319 311 328 317 315 323 325 325 318 313 305
211 224 235 221 207 192 77 72 156 80 74 54 103 107 109 115 118 123 125 120 120 116 111 100 47 358 347 1 355 352 350 341 326 307 316 322 327 324 317 319 328 330 327 317
206 217 228 174 224 17 50 70 145 136 112 111 107 111 111 123 116 110 113 121 119 120 113 78 18 355 36 16 357 355 321 346 331 329 322 323 327 331 339 344 335 334 332 331
211 211 227 158 131 143 346 307 36 4 93 98 112 130 137 145 199 138 135 129 120 105 90 47 41 46 40 23 3 9 358 330 331 329 335 344 345 335 332 330 334 337 341 341
219 191 243 234 203 77 169 219 282 286 108 104 125 141 153 126 95 132 132 120 112 93 72 64 59 59 38 26 11 10 348 341 351 351 345 337 341 341 344 340 340 338 345 345
208 178 230 175 110 115 358 321 313 110 138 127 122 133 112 121 125 129 125 119 104 82 67 64 65 60 32 19 16 7 343 357 4 7 7 5 359 354 339 344 347 344 342 345
189 115 91 61 133 164 208 236 120 158 129 136 140 135 139 139 136 138 131 118 94 94 80 64 61 48 25 10 12 6 343 341 358 8 5 356 1 4 1 4 1 359 358 348
86 76 119 111 167 164 165 170 143 137 135 128 133 135 147 141 138 135 126 119 110 90 75 58 49 37 20 12 13 4 340 345 4 356 5 346 360 7 355 6 1 6 2 356
27 140 117 113 164 162 145 155 135 126 131 132 132 139 137 138 134 135 127 119 111 100 78 57 49 35 18 13 9 353 351 347 0 2 351 350 353 6 356 358 1 4 4 9
43 286 137 111 155 150 149 142 141 138 136 135 128 122 123 132 132 129 127 126 122 103 80 60 41 28 16 13 3 351 360 359 0 358 350 357 354 354 354 358 352 356 356 3
Height
1475 1477 1475 1459 1453 1461 1460 1466 1464 1458 1459 1467 1465 1474 1478 1480 1483 1488 1491 1498 1501 1505 1509 1515 1519 1521 1526 1527 1530 1533 1536 1537 1538 1540 1540 1539 1541 1542 1542 1542 1542 1542 1541 1541
1474 1477 1459 1457 1455 1458 1457 1460 1462 1460 1459 1464 1465 1467 1467 1474 1477 1482 1485 1490 1494 1498 1505 1510 1516 1518 1522 1525 1526 1529 1532 1534 1536 1537 1539 1539 1540 1540 1540 1539 1540 1539 1539 1539
1472 1463 1455 1459 1459 1463 1458 1459 1468 1466 1461 1459 1460 1467 1468 1466 1471 1475 1478 1482 1483 1486 1494 1504 1511 1516 1520 1523 1525 1527 1529 1531 1533 1534 1536 1538 1538 1538 1538 1538 1537 1537 1536 1536
1464 1455 1453 1459 1460 1455 1465 1453 1454 1460 1466 1482 1455 1487 1467 1464 1473 1475 1474 1471 1470 1485 1487 1500 1511 1514 1517 1520 1523 1526 1528 1530 1531 1533 1535 1535 1535 1535 1535 1535 1534 1533 1532 1534
1463 1455 1452 1456 1457 1449 1458 1454 1454 1455 1463 1459 1462 1471 1496 1484 1517 1499 1475 1467 1468 1452 1481 1491 1508 1516 1517 1518 1520 1524 1525 1528 1530 1531 1533 1533 1533 1533 1533 1533 1534 1533 1530 1531
1453 1447 1445 1450 1448 1449 1450 1456 1457 1456 1461 1481 1453 1460 1487 1507 1501 1495 1481 1472 1469 1468 1465 1479 1506 1513 1518 1517 1518 1520 1523 1525 1527 1529 1530 1530 1530 1529 1530 1531 1529 1529 1528 1529
1457 1449 1443 1446 1452 1452 1455 1463 1484 1490 1495 1485 1456 1466 1482 1481 1488 1495 1484 1476 1476 1474 1459 1479 1506 1511 1515 1517 1518 1518 1521 1525 1527 1528 1529 1529 1529 1528 1527 1527 1526 1526 1526 1524
1468 1473 1443 1441 1448 1456 1456 1458 1475 1505 1498 1489 1468 1494 1488 1473 1477 1474 1475 1475 1477 1479 1471 1494 1505 1510 1513 1516 1517 1516 1521 1524 1526 1528 1528 1528 1527 1527 1526 1527 1524 1523 1523 1523
1456 1460 1437 1437 1444 1450 1459 1463 1443 1463 1454 1475 1467 1485 1479 1489 1468 1472 1476 1477 1481 1484 1491 1498 1505 1509 1512 1517 1518 1520 1522 1524 1526 1528 1529 1528 1527 1525 1524 1523 1522 1520 1520 1520
1438 1457 1436 1438 1444 1446 1448 1444 1465 1449 1481 1486 1478 1484 1507 1509 1504 1480 1482 1480 1483 1488 1493 1499 1503 1509 1514 1517 1520 1522 1524 1525 1527 1528 1528 1528 1528 1526 1524 1522 1521 1520 1519 1518
1435 1437 1445 1438 1444 1448 1448 1456 1451 1445 1449 1479 1516 1517 1496 1503 1499 1491 1482 1481 1489 1494 1497 1501 1504 1510 1516 1520 1523 1525 1526 1528 1529 1527 1528 1527 1526 1525 1524 1523 1521 1519 1517 1516
1431 1430 1443 1438 1427 1430 1437 1442 1442 1462 1465 1470 1477 1490 1486 1477 1482 1496 1485 1483 1491 1491 1494 1494 1497 1503 1517 1522 1525 1527 1528 1529 1529 1527 1526 1524 1523 1521 1521 1520 1518 1517 1515 1513
1430 1436 1447 1444 1433 1430 1442 1437 1437 1435 1452 1479 1492 1509 1490 1483 1475 1483 1478 1488 1494 1500 1498 1495 1497 1501 1519 1523 1524 1525 1525 1529 1530 1527 1524 1521 1520 1517 1516 1514 1512 1511 1509 1507
1429 1427 1440 1466 1444 1438 1442 1436 1439 1451 1484 1497 1491 1523 1518 1495 1478 1479 1486 1495 1501 1505 1508 1509 1511 1518 1521 1524 1525 1524 1521 1520 1524 1521 1523 1521 1517 1515 1513 1511 1509 1505 1503 1501
1431 1450 1452 1465 1442 1443 1450 1454 1451 1454 1449 1479 1503 1518 1513 1498 1483 1485 1492 1498 1505 1509 1514 1517 1520 1523 1525 1526 1527 1526 1522 1518 1520 1520 1521 1518 1513 1511 1509 1507 1504 1501 1498 1496
1429 1446 1446 1470 1451 1445 1458 1458 1458 1454 1447 1455 1481 1508 1496 1492 1490 1490 1494 1501 1507 1512 1517 1520 1523 1525 1527 1528 1527 1525 1521 1521 1522 1521 1517 1513 1510 1508 1506 1503 1499 1497 1494 1491
1430 1434 1440 1454 1442 1449 1463 1454 1452 1446 1448 1456 1471 1481 1486 1490 1493 1498 1501 1505 1509 1515 1518 1521 1523 1525 1527 1527 1525 1523 1522 1520 1519 1517 1514 1511 1509 1505 1502 1499 1495 1491 1488 1485
1428 1431 1432 1444 1440 1471 1441 1435 1440 1444 1449 1455 1462 1473 1480 1490 1497 1501 1504 1507 1512 1517 1520 1523 1524 1525 1526 1525 1523 1522 1521 1519 1518 1515 1513 1510 1506 1503 1499 1495 1491 1488 1484 1481
1419 1425 1436 1446 1452 1456 1448 1448 1448 1451 1460 1460 1466 1475 1483 1491 1497 1502 1506 1511 1515 1519 1521 1523 1524 1524 1524 1524 1523 1522 1519 1518 1516 1513 1510 1506 1502 1499 1496 1492 1489 1486 1482 1477
1412 1415 1428 1437 1472 1495 1482 1463 1452 1455 1473 1463 1469 1477 1485 1491 1496 1501 1509 1513 1517 1519 1521 1522 1523 1523 1523 1522 1521 1520 1519 1516 1513 1510 1506 1504 1501 1498 1495 1491 1487 1483 1479 1475
1419 1423 1436 1434 1445 1469 1473 1474 1464 1480 1483 1468 1473 1479 1485 1490 1494 1503 1509 1514 1517 1519 1521 1522 1522 1522 1522 1521 1520 1520 1517 1514 1510 1507 1505 1502 1498 1495 1492 1489 1485 1481 1478 1473
1421 1439 1438 1444 1469 1493 1471 1475 1475 1471 1470 1471 1476 1481 1488 1495 1500 1505 1510 1514 1517 1519 1521 1521 1521 1522 1522 1520 1519 1518 1515 1512 1509 1506 1503 1500 1497 1494 1491 1487 1484 1480 1475 1471
1427 1428 1433 1440 1462 1464 1469 1469 1464 1468 1473 1476 1480 1484 1489 1495 1500 1506 1511 1515 1517 1519 1520 1521 1521 1521 1521 1519 1518 1517 1513 1510 1507 1505 1504 1501 1498 1494 1490 1486 1482 1478 1473 1469
1420 1422 1452 1447 1466 1461 1455 1464 1467 1470 1475 1479 1484 1487 1491 1495 1501 1506 1511 1514 1517 1518 1520 1520 1521 1520 1519 1518 1517 1516 1513 1509 1507 1505 1504 1501 1499 1495 1492 1487 1484 1479 1475 1469
1424 1425 1435 1445 1459 1461 1464 1467 1469 1472 1479 1484 1487 1490 1493 1497 1502 1506 1511 1514 1516 1518 1520 1520 1520 1519 1519 1518 1516 1514 1512 1509 1507 1505 1504 1501 1497 1495 1493 1489 1485 1481 1478 1472
1435 1431 1433 1445 1453 1452 1462 1468 1472 1477 1482 1486 1489 1492 1496 1500 1504 1507 1511 1515 1517 1519 1520 1520 1520 1519 1518 1517 1515 1513 1511 1509 1507 1506 1503 1500 1497 1494 1491 1488 1485 1482 1478 1473